Theta_e
350 348 345 347 349 351 353 354 359 363 361 357 358 362 364 364 366 368 365 364 366 362 360 362 362 360 362 362 363 363 361 359 356 355 355 355 351 350 351 350 352 353 354 353 353 353 348 341 343 346 346 348 349 352 353 352 351 350 351 351 350 349 350 348 343 339 336 336 335 335 336 336 338 338 338 337 336 334 333 338 345 350 351 353 352 351 351 350 349 345 344 345 346 349 348 349 352
348 346 347 350 350 353 358 356 359 360 358 356 358 364 365 365 367 369 365 363 366 361 359 361 362 363 360 361 365 366 362 360 358 356 354 352 351 352 351 351 352 353 353 353 353 352 349 341 339 346 345 346 349 351 352 351 351 350 350 350 349 350 350 349 347 342 340 342 340 340 342 339 340 340 339 338 336 333 331 333 341 348 351 352 352 351 351 349 347 345 344 346 349 350 349 350 353
345 349 350 352 352 353 359 358 358 357 355 355 358 366 364 368 369 364 362 362 363 359 359 360 363 364 361 363 364 364 363 359 356 353 352 352 352 352 352 351 351 352 353 353 353 351 350 343 342 348 346 348 350 351 352 351 352 349 349 349 349 350 350 350 348 346 345 346 345 346 346 341 341 342 340 339 335 332 330 334 344 351 353 352 352 351 350 348 346 346 346 348 351 352 350 351 353
347 351 350 352 356 356 360 362 362 357 355 355 357 367 365 367 366 361 360 360 360 358 358 360 363 361 362 366 361 363 364 360 355 352 352 352 352 353 353 352 352 353 353 353 353 351 351 346 345 352 351 351 351 351 352 350 351 348 348 349 350 350 350 350 349 348 347 347 347 349 348 345 347 347 344 340 335 331 333 343 351 353 354 353 352 350 349 348 347 347 348 350 351 351 351 352 354
350 351 350 352 358 359 362 364 364 359 358 359 359 366 365 363 363 360 358 357 358 359 358 360 364 359 361 362 360 366 364 360 356 351 352 352 352 353 353 352 352 353 354 354 353 352 353 348 343 350 353 352 351 350 351 350 351 349 348 350 351 351 351 349 348 348 348 348 345 346 348 348 351 352 350 346 338 331 335 346 352 353 353 352 350 349 348 348 347 347 349 351 352 351 352 353 353
350 351 351 352 357 358 361 361 360 360 363 365 365 369 365 361 361 358 356 356 356 356 357 359 362 360 361 358 359 362 359 361 357 351 353 353 353 353 354 353 353 353 354 354 354 352 354 351 343 345 352 353 349 347 349 349 351 350 348 350 348 347 347 342 339 339 342 346 344 343 347 350 352 353 353 350 339 330 336 344 350 353 353 352 350 349 349 349 347 347 349 351 352 351 352 353 353
351 353 354 356 358 358 363 360 357 361 364 367 368 369 364 360 360 357 356 357 356 356 357 359 360 363 363 358 359 359 355 357 353 352 353 352 353 354 354 353 353 354 354 355 353 352 353 353 345 340 348 352 350 348 350 350 351 350 347 349 345 338 336 333 331 331 333 339 344 343 345 349 351 352 352 350 341 330 336 345 351 353 352 351 350 350 350 350 349 348 349 351 351 351 351 352 354
352 355 357 359 364 362 362 360 360 364 365 366 366 365 360 358 358 356 357 358 358 357 357 358 359 364 363 358 362 359 355 355 352 353 353 353 354 354 355 353 354 354 354 354 352 352 352 352 349 343 343 348 350 349 349 349 351 349 347 347 342 334 330 331 332 332 330 332 342 346 346 349 350 352 352 352 343 330 338 347 350 351 350 351 350 351 350 350 350 348 349 350 350 350 351 352 353
352 356 358 360 365 362 360 361 363 367 370 369 364 362 359 358 359 357 358 358 357 357 357 358 358 364 362 360 363 358 357 356 353 354 353 354 354 354 355 353 354 354 354 353 351 352 352 352 350 344 340 343 346 348 346 347 348 346 345 342 337 333 330 332 331 331 331 329 339 347 348 351 351 352 353 350 339 330 340 347 349 350 350 351 350 350 350 349 350 348 349 350 350 350 350 351 352
354 356 359 362 362 357 358 361 363 368 370 367 364 363 361 359 360 360 359 357 357 357 357 357 358 363 362 362 362 357 357 356 354 355 353 354 354 354 354 354 354 354 354 352 351 352 352 352 349 344 342 342 341 344 345 342 341 340 340 336 335 333 331 331 329 328 328 328 339 347 348 350 351 351 350 343 333 335 344 348 351 351 351 351 350 350 349 348 349 350 349 350 350 348 349 350 351
358 358 357 359 358 355 357 360 362 367 365 364 364 362 361 358 360 362 360 358 357 357 357 357 360 361 359 361 360 355 356 356 355 355 353 353 353 353 354 354 353 353 352 351 350 351 351 350 349 345 342 342 341 341 341 341 336 333 333 333 332 331 329 328 327 326 327 332 342 348 349 350 351 349 344 334 334 343 348 350 351 351 350 350 349 348 346 346 349 350 349 348 347 345 345 346 348
361 361 360 361 359 358 358 360 362 364 365 366 366 361 359 357 359 363 361 360 358 358 359 359 361 359 360 363 360 356 355 356 355 354 353 353 353 353 353 353 353 352 350 349 349 349 350 351 349 347 343 342 345 343 337 340 337 329 328 328 328 327 328 329 330 333 335 342 347 348 349 351 349 343 336 335 343 349 351 351 350 349 349 350 349 346 345 346 348 348 346 344 343 343 343 343 344
361 361 362 363 362 362 360 361 362 365 369 366 364 361 358 356 359 363 362 361 360 362 362 361 362 361 362 362 358 357 356 355 354 353 352 352 352 352 352 352 352 352 350 349 348 348 350 351 349 349 348 345 348 345 336 338 337 331 330 329 330 333 336 339 340 343 345 348 348 350 351 350 343 337 337 343 350 351 350 349 349 349 349 350 347 344 345 346 345 344 343 342 342 343 343 345 347
359 360 362 362 363 366 363 364 363 365 368 364 363 362 358 356 356 361 362 361 361 362 361 359 361 363 362 361 361 359 357 355 354 353 351 351 352 351 352 352 351 351 350 349 347 348 349 349 348 348 351 350 350 350 345 344 341 339 339 338 340 343 345 346 347 349 350 350 351 352 351 345 339 341 346 349 351 350 350 349 349 350 350 350 347 344 345 344 343 342 342 342 343 345 347 348 350
355 360 363 364 366 366 365 366 363 362 365 364 363 362 359 357 355 359 361 361 362 358 359 359 360 364 363 362 364 360 356 354 353 352 351 351 351 351 352 351 351 350 350 349 347 347 346 346 347 347 350 351 351 351 349 348 347 346 347 346 346 349 350 350 351 352 352 353 353 350 347 344 344 349 351 350 350 350 350 349 348 349 349 348 345 345 344 342 342 341 342 343 345 347 349 350 352
357 360 362 364 364 364 366 367 365 362 363 363 362 361 362 359 356 357 356 358 360 355 360 363 359 363 363 361 361 357 355 354 352 351 351 351 351 351 351 351 351 351 350 348 346 345 345 347 348 349 350 351 350 350 348 348 351 351 351 351 350 352 353 353 353 354 354 353 349 347 347 349 349 349 348 347 346 345 346 346 345 346 346 346 344 343 342 342 342 342 344 345 348 350 350 353 356
360 361 363 365 363 365 370 370 367 362 362 363 361 363 365 362 356 355 354 354 357 356 358 360 358 361 362 359 357 356 355 353 351 351 352 352 351 351 352 352 352 351 350 347 346 347 349 350 351 352 352 352 350 350 350 349 352 353 353 353 353 353 354 355 355 354 352 349 347 349 349 349 347 345 343 342 341 341 343 345 346 347 347 345 343 342 343 344 344 344 346 347 349 351 352 354 356
359 362 364 364 368 372 373 375 369 361 364 366 362 364 366 365 358 354 356 356 357 359 358 357 358 359 358 357 356 355 354 352 351 352 353 352 352 352 352 352 352 352 351 348 349 351 351 352 352 352 353 352 351 350 351 350 352 354 353 352 353 354 355 355 353 351 348 347 348 349 348 345 344 341 340 340 341 344 346 348 349 347 346 345 344 345 346 346 346 347 347 348 350 351 352 352 353
359 363 364 366 374 376 373 374 371 364 364 364 363 365 364 363 360 356 360 359 358 362 361 358 360 358 356 355 355 355 353 352 352 353 354 353 352 352 352 352 353 352 351 350 351 351 351 352 352 351 352 351 350 350 350 351 351 351 351 350 352 353 353 352 350 349 348 347 346 345 345 342 341 340 340 342 344 348 349 348 348 346 345 346 346 346 347 348 347 348 349 349 350 350 351 351 351
361 361 368 376 374 372 372 370 369 365 361 362 364 364 363 363 361 360 361 360 359 364 362 360 362 359 357 356 355 355 353 353 354 354 354 353 353 352 352 352 352 352 352 351 351 352 352 351 351 350 350 350 349 349 350 350 348 348 349 349 349 350 350 350 350 350 348 346 345 343 342 340 341 342 343 344 346 347 347 346 346 346 346 346 347 348 348 348 348 349 349 349 350 350 351 351 351
362 362 376 381 368 365 371 370 369 366 360 362 365 365 367 364 361 362 362 363 364 363 360 360 361 358 357 356 355 354 353 354 354 355 354 354 353 352 352 351 351 351 352 352 352 353 353 352 350 349 348 348 348 349 348 347 345 346 349 348 347 349 349 349 349 348 347 344 343 342 341 341 343 344 344 346 347 347 345 345 345 346 347 347 347 348 348 349 349 349 349 349 350 350 350 351 350
363 367 373 372 363 362 371 372 368 365 361 363 365 367 367 362 363 363 363 369 368 362 360 359 358 356 356 355 354 354 354 355 355 355 354 354 354 353 352 351 350 351 352 353 353 353 353 352 351 349 348 348 349 348 346 344 343 345 348 347 347 348 348 348 346 344 343 341 341 342 343 344 344 344 345 346 347 346 345 345 346 347 348 348 348 348 348 348 348 348 348 349 349 349 349 349 349
365 371 368 365 363 362 370 374 368 364 367 370 368 365 363 362 365 363 363 369 366 361 361 359 357 355 355 355 354 354 355 355 355 355 354 354 354 353 353 351 351 351 352 352 352 353 353 352 351 349 348 348 349 347 345 343 342 343 345 346 347 347 347 345 343 341 341 341 342 344 345 345 344 345 346 346 347 347 347 347 348 348 348 348 349 349 348 348 348 348 348 348 348 348 349 349 349
363 370 369 365 365 365 368 369 368 366 370 372 365 362 365 367 366 361 362 365 363 362 360 359 356 354 354 354 353 353 355 356 355 355 354 354 354 354 353 352 351 351 352 352 352 352 352 351 351 349 348 348 349 347 345 344 342 343 344 345 345 345 343 340 340 340 342 343 344 345 346 346 345 345 346 347 348 349 348 349 349 349 349 349 349 349 349 348 348 348 349 349 349 349 349 349 349
366 368 369 369 370 372 368 362 363 366 366 364 362 364 367 365 363 363 363 363 362 360 358 358 356 355 355 354 353 354 355 356 356 356 355 355 355 354 353 352 351 352 352 352 351 352 351 350 350 349 349 348 348 347 345 344 342 343 344 344 343 341 338 338 341 343 344 344 345 346 346 346 346 346 347 348 349 349 349 350 350 350 349 348 348 348 348 348 348 349 349 349 349 349 349 349 348
371 371 369 370 370 370 369 367 365 364 363 360 362 366 365 361 362 367 365 362 361 358 357 358 357 355 355 354 354 354 355 356 356 356 355 355 355 354 354 352 352 352 352 352 351 351 351 350 350 350 350 349 348 347 346 344 343 343 344 342 341 338 336 340 343 344 345 345 345 346 346 345 346 347 348 349 349 350 350 350 350 349 349 348 347 347 347 347 347 348 349 348 348 348 348 347 347
371 373 371 370 368 365 367 370 365 362 361 360 366 367 364 361 363 372 366 359 360 358 358 357 357 355 355 355 354 354 355 356 356 356 356 355 355 354 354 353 352 352 351 352 351 351 352 351 351 351 350 349 348 347 345 344 343 342 342 340 338 335 337 343 345 345 345 346 346 346 345 345 347 348 348 349 349 350 350 350 350 349 349 347 347 347 347 347 348 348 348 348 348 348 347 346 346
366 367 367 364 364 365 366 368 362 363 362 359 369 369 364 362 366 375 366 357 359 359 359 357 357 356 354 355 354 354 355 356 357 356 356 355 355 354 354 353 352 352 352 351 352 351 352 352 351 351 350 349 347 346 344 342 341 339 339 338 337 335 339 345 346 346 346 346 346 345 344 345 347 348 348 349 349 350 350 350 350 349 348 348 348 348 348 348 348 348 347 348 348 347 347 346 346
360 359 360 360 364 367 365 366 361 364 365 360 368 368 368 368 367 372 363 357 360 359 360 357 357 357 354 355 354 354 355 355 356 355 356 356 355 355 354 354 353 352 352 351 352 351 351 351 351 351 350 349 347 344 341 339 339 340 340 340 338 335 340 346 347 346 346 346 346 344 344 346 347 348 348 349 350 350 351 351 350 348 348 349 350 350 349 348 347 347 347 347 347 346 346 345 345
356 358 361 359 363 368 365 365 364 364 362 362 364 363 374 377 365 367 362 357 361 361 361 357 358 359 355 355 353 354 355 354 355 354 355 355 355 355 354 354 353 352 352 352 352 351 351 351 351 351 350 348 346 342 338 340 344 345 345 343 339 337 341 346 346 346 346 345 346 346 346 347 347 348 348 349 349 350 351 350 350 349 349 350 351 351 350 349 348 347 347 346 346 346 346 346 346
360 355 362 362 352 363 374 368 370 371 361 362 363 359 376 381 363 364 363 358 362 362 362 359 359 359 357 357 354 354 354 353 355 354 354 354 355 355 354 354 353 353 352 352 352 351 351 351 351 350 349 346 343 339 339 344 348 347 346 343 341 340 343 346 345 345 345 346 347 347 347 347 347 348 348 349 349 350 350 350 350 349 350 351 351 351 350 349 348 347 346 346 346 346 346 346 346
369 346 351 363 349 362 378 364 369 379 365 361 363 364 377 375 362 364 363 359 361 363 364 361 359 360 359 358 356 356 356 353 352 353 353 353 354 354 353 353 353 353 352 351 352 351 351 350 349 348 346 343 340 339 343 347 349 349 347 344 343 345 345 344 344 344 345 348 349 348 347 347 348 349 349 350 350 349 349 349 350 350 350 351 350 350 350 348 346 346 346 346 346 346 346 346 346
371 348 344 357 352 355 362 359 365 371 368 365 363 369 376 370 363 363 362 361 362 363 363 359 358 359 359 359 358 358 360 356 352 351 351 352 353 352 353 353 352 353 352 351 351 351 351 350 348 346 341 338 339 343 347 348 349 349 348 344 344 347 346 344 344 345 346 349 350 349 348 348 349 350 350 350 350 349 348 349 349 350 350 350 350 350 349 348 346 346 346 346 347 346 346 346 346
358 357 351 355 354 348 347 354 362 362 371 374 367 370 371 365 363 362 362 363 362 363 361 356 356 357 359 360 359 359 360 359 354 351 350 350 352 351 352 352 351 352 352 351 351 350 351 350 348 343 338 339 342 346 347 349 349 349 350 347 345 347 348 347 346 346 348 349 350 349 349 349 350 350 350 350 350 349 347 347 348 348 349 349 349 350 349 347 346 346 347 346 347 347 347 347 346
344 349 348 347 349 345 343 349 360 368 374 375 371 371 367 364 364 362 363 363 362 362 358 355 355 356 357 358 359 358 359 359 354 351 351 349 350 351 351 351 350 351 351 351 351 351 351 351 348 343 340 343 346 347 348 350 351 350 350 348 345 347 349 349 348 348 348 349 349 349 349 349 349 349 349 349 350 349 348 347 346 345 346 348 348 349 349 347 346 346 347 347 347 348 348 347 348
345 345 343 341 341 340 342 345 356 372 374 375 374 371 371 369 365 363 364 363 362 360 357 355 355 355 356 356 357 358 359 359 354 352 353 349 349 350 349 350 349 349 350 350 351 351 351 350 349 346 345 347 348 349 350 351 352 351 351 349 346 346 349 351 350 348 348 348 349 349 349 348 348 348 348 348 349 349 348 347 345 344 345 347 348 348 348 346 346 346 347 348 349 349 349 350 349
346 347 345 343 339 337 341 339 349 365 369 376 374 371 377 372 364 363 363 365 363 360 358 356 354 356 356 355 357 359 359 359 354 352 353 351 349 348 348 349 348 348 348 348 350 349 350 350 349 349 348 348 349 349 350 350 351 351 350 348 346 347 350 351 349 348 348 347 347 348 348 347 347 347 347 347 347 347 348 348 346 345 345 346 346 347 347 346 346 347 348 349 350 351 353 353 351
343 345 343 338 336 337 340 338 347 358 365 373 371 371 377 369 363 364 363 366 365 361 359 356 355 355 356 356 358 360 359 358 356 354 353 352 351 348 347 348 347 347 347 347 348 348 348 349 348 349 349 349 349 348 348 349 349 348 347 346 346 349 350 350 348 347 347 346 347 347 346 346 346 346 345 345 345 346 348 349 349 347 346 346 346 347 347 346 347 347 349 351 353 355 356 354 353
338 339 337 333 334 337 340 346 359 362 359 369 374 375 374 366 362 362 363 365 364 360 359 356 355 355 356 356 357 358 358 359 360 356 353 352 352 350 346 346 347 346 346 346 347 347 347 347 347 348 348 348 347 347 347 347 346 345 344 344 346 349 349 348 347 346 347 346 346 345 345 345 344 344 344 344 344 345 348 350 351 349 347 347 347 347 346 347 348 348 350 354 357 358 358 356 355
337 336 331 330 332 332 332 345 370 373 360 366 380 381 376 367 364 364 362 364 364 361 360 357 355 355 356 356 355 356 356 358 360 356 353 352 351 351 348 345 346 346 346 346 346 347 347 346 347 347 347 347 347 347 346 346 345 344 344 345 347 349 349 348 348 347 348 347 345 343 343 343 343 344 344 344 344 345 347 350 351 349 348 348 348 348 348 348 348 350 353 357 357 356 355 355 354
337 335 331 330 331 331 330 339 366 374 365 370 375 369 370 370 367 368 363 362 364 361 361 359 355 354 354 355 355 355 355 357 360 357 353 353 351 350 350 346 346 346 346 346 346 346 346 346 346 346 346 346 346 347 346 346 345 344 344 346 348 350 350 349 349 347 346 345 343 342 343 344 345 345 344 344 345 345 347 349 350 349 349 350 350 350 348 348 349 353 356 356 354 351 350 350 348
331 334 335 332 332 332 331 339 352 353 351 361 358 346 355 367 367 369 366 365 365 360 361 361 357 356 355 356 356 355 356 358 360 357 353 353 352 350 351 348 345 345 345 346 346 346 346 346 346 346 346 346 346 346 345 346 344 343 344 347 348 349 349 349 348 346 344 343 342 342 343 344 346 345 345 345 345 346 348 349 349 349 350 352 352 350 348 348 351 354 355 353 350 347 346 345 343
325 334 337 332 334 330 329 340 345 340 338 348 356 343 343 356 362 366 367 367 367 363 363 361 359 358 356 356 357 355 357 358 359 357 353 353 352 351 351 348 345 345 346 346 346 345 346 346 346 346 346 345 345 345 345 345 343 343 344 345 347 347 347 346 345 344 343 343 343 343 344 344 345 345 346 347 346 347 348 349 350 350 351 352 351 348 347 350 353 354 352 349 346 344 342 341 339
328 340 337 335 339 332 334 342 342 346 341 345 365 356 341 347 355 362 367 368 368 366 365 363 360 359 357 356 357 356 356 357 359 359 355 353 353 352 350 350 347 345 345 345 344 345 345 346 345 346 346 345 345 345 345 345 343 341 343 344 345 345 345 345 344 344 343 344 345 344 344 344 345 345 347 348 347 348 348 349 350 351 352 352 349 347 349 352 354 353 350 346 344 341 338 337 336
332 338 333 337 342 337 340 342 340 348 336 333 356 357 342 348 357 364 369 367 367 367 365 363 361 360 359 357 356 357 356 356 358 360 358 354 353 353 351 351 349 346 345 344 344 344 343 344 345 344 345 345 345 345 345 345 342 340 342 344 344 345 345 344 344 344 344 346 346 344 343 344 346 346 347 348 349 348 348 349 350 351 352 350 347 348 351 352 353 351 348 344 340 336 335 335 334
332 332 333 339 345 346 348 345 341 340 329 327 342 348 342 347 358 365 368 368 368 367 364 363 362 360 359 359 357 356 357 357 357 359 359 355 354 354 351 351 350 346 345 344 343 344 343 343 343 344 344 344 344 344 344 344 341 340 342 343 344 345 345 345 345 345 345 348 348 343 342 346 347 347 347 348 348 348 348 349 349 351 351 348 347 349 351 352 351 349 345 340 336 334 333 334 333
329 332 339 342 352 362 364 363 346 331 334 337 339 346 342 339 351 362 367 373 372 371 370 365 362 361 359 359 358 356 357 357 357 358 358 355 354 355 352 350 350 347 344 343 342 343 343 342 343 343 343 344 344 344 344 343 340 340 342 343 343 344 345 346 345 345 346 349 348 344 344 347 347 347 347 347 348 348 349 349 350 350 349 347 348 350 351 352 349 346 341 337 334 333 333 332 331
330 339 346 337 342 350 351 355 342 329 339 343 340 347 339 333 348 365 372 375 369 370 379 372 364 362 359 358 358 357 357 357 357 358 359 357 354 354 354 351 350 347 343 342 342 342 342 342 342 342 342 342 343 343 343 341 339 341 342 343 343 343 345 345 344 345 349 350 347 345 346 347 347 347 346 346 347 348 348 348 349 349 348 348 349 350 351 350 347 343 338 334 332 332 331 330 330
333 341 344 334 336 339 338 343 336 330 336 335 338 344 336 338 353 363 375 381 373 367 372 372 366 362 359 358 358 357 356 357 356 357 359 358 355 353 354 352 349 346 342 342 342 341 342 341 341 341 341 341 342 342 342 341 340 340 342 343 342 342 344 344 344 346 349 350 347 347 348 347 346 346 345 345 345 346 346 347 347 347 347 348 349 350 350 348 344 339 335 332 331 329 329 329 330
328 331 334 332 339 339 340 345 335 328 332 330 338 341 335 339 348 356 365 367 372 367 362 367 366 362 360 357 357 357 356 356 356 357 357 357 355 353 353 352 350 346 343 341 341 341 341 340 340 340 340 341 341 342 341 340 340 341 341 342 342 342 343 344 344 345 348 349 348 348 348 347 347 346 345 344 344 345 345 345 345 346 347 348 350 350 348 345 340 336 333 330 329 328 329 330 331
333 339 335 329 339 336 334 341 334 331 335 330 331 335 335 335 338 355 359 351 363 367 361 365 364 361 360 357 356 357 356 356 355 356 356 355 355 353 353 352 350 347 343 341 341 341 341 340 339 340 340 341 341 341 341 340 340 340 341 341 340 341 343 345 345 345 347 348 349 349 349 349 348 347 346 345 346 345 345 344 344 346 348 349 350 349 346 342 337 334 331 329 328 329 330 330 331
331 341 332 325 338 340 332 335 336 333 331 330 331 332 344 348 342 355 359 352 362 367 365 367 366 363 360 357 357 356 356 357 355 356 356 355 355 354 353 352 351 348 343 341 341 341 341 340 340 340 340 341 341 341 341 340 340 340 340 340 339 340 343 345 346 346 347 348 349 350 350 350 348 348 348 348 347 346 345 345 345 347 350 350 349 347 343 339 334 331 329 328 328 329 330 330 331
330 329 326 328 337 341 332 330 337 331 323 333 336 332 345 352 342 357 367 357 363 373 373 369 367 365 361 359 357 355 356 356 355 356 355 355 355 353 353 352 351 348 342 341 341 340 341 340 339 340 340 340 341 341 341 340 340 339 339 340 338 339 342 345 346 347 347 348 349 351 352 353 351 350 351 350 349 347 346 347 348 349 350 349 347 344 340 336 332 329 328 328 329 330 330 330 330
334 325 328 337 338 343 336 327 334 333 328 339 339 333 343 341 335 355 373 362 365 379 379 370 366 365 362 360 358 355 357 355 355 356 354 355 355 353 353 352 351 349 344 341 340 340 341 340 341 340 339 340 340 341 341 340 340 340 339 340 338 339 342 345 346 348 348 348 348 350 353 354 353 352 351 350 349 349 349 350 351 350 349 347 345 342 337 334 330 328 328 329 330 330 330 330 330
337 331 337 342 335 337 334 326 330 330 328 337 339 336 339 338 341 354 361 364 371 379 378 374 371 367 362 360 359 356 357 355 355 355 354 355 354 353 354 352 351 350 345 342 340 340 341 340 341 340 340 342 341 341 342 340 341 339 339 341 339 340 342 344 345 347 348 348 348 350 353 354 353 352 350 349 349 349 350 351 350 349 348 345 343 339 335 332 329 328 329 330 330 329 329 330 331
333 332 336 340 339 337 331 326 329 327 327 333 336 335 334 341 358 361 356 367 374 381 389 388 378 368 361 360 359 357 357 356 355 355 354 355 353 353 353 351 352 350 346 343 340 340 341 340 341 340 340 341 341 342 342 341 341 340 340 342 341 341 342 342 343 346 348 348 347 349 352 353 352 351 349 348 349 350 350 350 350 348 347 344 341 337 333 331 328 328 330 330 330 330 330 331 333
328 325 326 328 332 334 329 326 326 328 333 335 333 332 336 347 361 363 361 364 366 379 395 394 379 366 360 360 360 358 358 356 356 355 354 355 354 353 353 352 351 349 345 343 341 340 340 340 341 340 340 341 341 341 342 341 341 341 341 343 343 343 342 342 343 345 348 348 347 348 351 352 351 349 349 349 349 349 349 350 349 348 346 343 339 335 332 329 328 328 330 330 330 330 331 333 334
332 329 327 328 330 330 327 327 329 326 328 335 332 326 336 349 348 352 356 356 362 373 382 388 381 365 360 361 359 359 359 357 357 355 353 354 354 353 353 352 351 349 345 342 341 341 340 340 340 340 340 341 341 341 342 342 342 342 343 343 344 345 343 343 344 346 348 347 346 348 351 351 350 349 349 348 349 349 349 350 350 348 346 342 337 334 330 329 328 329 330 330 330 331 332 333 334
Wind_Speed
21 20 20 19 16 11 4 1 1 1 0 1 2 1 1 1 2 2 2 1 1 1 0 1 4 6 4 2 4 3 3 5 4 4 2 2 9 25 27 29 34 31 31 29 27 27 24 24 22 22 22 22 21 20 18 16 15 15 15 15 15 14 12 12 12 13 13 12 11 10 8 7 6 5 5 4 3 3 3 3 4 5 5 6 7 8 9 9 10 12 12 10 9 8 8 7 8
21 21 20 16 10 5 1 1 0 1 1 2 2 1 1 1 2 1 2 2 1 2 1 2 3 4 3 2 3 2 2 1 1 2 1 7 16 19 25 33 35 33 32 29 28 27 25 24 24 22 22 23 21 19 18 16 16 15 15 15 15 13 12 12 12 12 12 10 9 8 7 6 6 5 5 4 3 3 3 2 3 4 5 6 7 8 9 10 10 11 10 9 8 8 8 8 9
23 22 19 11 4 1 0 1 0 1 1 1 3 2 0 1 1 1 1 2 3 2 2 3 3 2 3 2 2 2 1 1 3 4 4 14 15 16 28 34 35 34 32 29 28 27 26 24 24 22 21 23 21 19 17 16 15 14 15 15 15 14 12 11 11 11 10 8 7 7 6 6 5 5 5 4 3 3 3 2 3 4 5 6 7 8 9 9 10 10 9 8 8 8 9 9 10
22 18 15 7 1 0 1 1 0 1 1 1 2 2 1 1 1 3 1 2 3 1 1 3 3 1 2 2 2 2 2 1 4 3 6 13 13 22 31 34 35 34 32 30 28 27 26 24 25 23 21 22 20 19 17 16 15 14 15 14 14 13 12 11 10 10 8 7 6 5 5 4 4 4 4 5 4 3 3 2 2 4 4 5 7 8 8 9 10 10 9 9 8 9 9 9 10
16 12 8 2 0 1 1 0 0 1 2 2 1 3 1 0 1 3 0 2 2 1 1 2 2 2 2 1 1 2 2 2 4 4 9 13 16 28 31 33 35 33 32 30 28 27 25 24 24 23 22 21 20 19 17 16 15 14 15 14 13 13 12 11 10 8 7 6 5 4 3 3 3 3 4 5 5 4 3 3 3 4 5 6 7 8 9 10 10 10 10 9 9 10 10 10 11
11 8 4 2 0 1 1 0 1 2 3 2 1 3 0 0 3 4 1 3 2 1 1 1 2 3 2 1 1 1 2 3 3 7 13 17 22 30 32 33 34 32 32 29 29 27 25 23 22 23 21 20 20 19 17 16 14 13 13 13 13 12 11 10 9 7 6 5 3 3 2 2 2 2 3 5 5 3 3 4 5 6 7 7 8 9 10 10 11 11 10 10 10 10 10 11 11
7 4 2 2 1 0 0 0 2 2 3 2 2 3 1 1 2 4 4 3 2 1 1 1 2 4 3 1 1 3 3 4 3 10 17 21 27 30 31 33 32 31 30 29 28 27 25 21 21 22 20 19 18 18 17 15 14 13 13 12 12 11 10 9 7 5 4 3 2 2 1 1 1 3 4 5 6 4 3 5 6 7 7 8 9 10 11 11 11 11 10 11 11 11 11 10 11
5 2 0 0 1 1 0 1 3 2 3 1 1 2 2 2 3 4 4 3 1 0 1 2 1 2 2 0 1 5 5 7 8 14 20 25 30 30 31 32 31 30 29 29 28 26 24 20 20 20 21 19 17 17 16 15 14 14 13 12 12 11 10 8 5 4 3 2 2 1 0 1 2 3 4 6 7 5 4 5 6 7 8 9 10 10 11 11 12 11 11 11 11 11 11 11 10
2 1 0 0 1 1 1 2 3 2 2 1 1 2 3 4 3 5 4 4 2 2 1 2 0 0 3 2 3 2 5 12 15 18 23 28 30 29 30 31 31 30 28 28 27 26 23 20 19 19 20 19 17 16 16 15 15 15 13 12 12 11 9 7 5 4 3 4 3 1 1 2 3 4 5 7 7 5 5 7 7 8 9 9 10 11 12 12 12 12 11 11 11 11 11 11 10
1 1 0 1 1 2 2 2 3 2 2 1 0 1 2 2 3 3 4 5 4 2 2 1 1 2 5 4 3 1 6 17 22 22 25 28 28 29 29 29 31 30 28 28 27 26 23 20 18 18 18 18 17 16 15 15 15 15 14 13 11 10 8 6 5 5 4 4 3 2 3 4 5 6 7 8 6 6 6 8 9 9 10 10 11 12 12 12 12 12 11 12 12 12 11 11 11
1 1 1 1 1 2 1 2 3 3 3 1 2 2 1 2 2 2 4 5 4 4 3 2 4 5 5 3 1 1 9 20 24 25 26 27 26 27 27 27 28 29 29 28 27 25 23 20 17 16 16 17 16 16 15 14 15 15 13 12 11 9 8 6 6 5 5 4 3 3 4 5 6 7 8 7 6 6 8 9 10 10 10 11 11 12 13 13 12 12 12 12 13 13 12 12 12
1 1 2 1 0 0 1 2 4 5 4 2 2 2 2 2 2 2 4 5 4 5 5 4 6 5 3 2 1 2 11 18 23 26 27 26 25 26 25 26 26 27 28 27 26 24 22 20 18 15 14 16 15 14 15 14 14 13 12 11 10 9 7 6 6 5 4 4 4 5 6 6 7 8 7 6 6 7 9 10 11 11 11 11 12 13 13 13 13 13 13 13 12 13 13 13 13
1 0 2 1 1 1 2 2 3 4 3 2 1 1 2 2 2 1 2 4 3 4 4 2 3 4 3 2 2 3 9 17 23 26 26 25 24 24 24 25 25 25 26 26 25 24 22 20 19 17 14 14 13 13 13 13 12 12 11 10 9 9 7 7 6 5 5 5 6 6 6 7 8 8 6 6 7 9 10 11 11 12 12 12 12 13 13 13 13 13 12 12 13 13 13 13 13
1 1 2 0 1 0 2 2 2 3 2 1 1 2 2 1 0 1 1 4 2 0 1 1 1 4 3 2 4 3 9 19 25 25 24 24 23 23 23 24 24 24 24 24 24 23 22 19 18 17 15 14 13 12 12 12 11 10 10 9 9 9 7 7 6 6 6 6 6 7 7 8 7 6 6 7 9 10 10 11 12 13 13 13 13 13 13 13 13 12 12 13 13 14 13 13 14
1 1 2 1 2 2 1 1 1 2 2 1 1 2 4 1 1 2 1 3 2 2 1 1 1 2 3 4 4 5 13 22 25 25 24 22 22 22 21 22 22 22 22 22 23 22 20 19 17 16 16 14 13 12 12 11 10 10 9 9 9 8 8 7 7 7 7 7 7 8 7 7 6 6 8 8 9 10 11 12 13 13 14 14 13 13 13 13 13 13 13 13 13 14 13 14 15
1 1 2 1 2 2 1 0 0 1 2 0 1 1 5 3 1 2 2 0 2 2 2 1 2 0 3 3 6 11 20 24 25 25 24 22 21 20 20 20 20 21 21 21 21 20 19 19 18 17 16 15 14 13 12 12 10 9 9 9 9 9 8 8 8 8 7 8 8 7 6 6 7 8 8 9 9 10 11 12 13 14 14 14 13 13 12 13 13 13 13 13 14 14 14 14 15
1 1 2 2 1 1 1 1 0 1 2 1 1 1 3 3 2 1 2 2 2 1 2 1 2 1 3 6 14 20 24 25 25 25 23 21 20 19 18 18 19 20 19 20 20 19 19 19 18 18 16 16 15 14 14 13 11 10 10 10 9 9 9 8 8 8 7 7 6 6 6 7 9 9 9 10 10 11 12 12 13 13 13 13 13 12 12 12 12 13 14 14 14 15 16 16 16
1 2 1 1 1 2 3 3 3 1 1 1 2 2 3 4 4 1 1 3 2 3 3 2 4 5 7 15 23 24 24 24 25 24 21 19 18 18 17 18 19 19 19 20 20 20 20 19 19 18 17 17 16 15 14 14 12 11 11 11 10 9 9 8 8 7 7 7 6 7 8 8 9 9 9 10 10 12 12 12 12 12 12 12 12 11 11 12 12 13 14 15 15 16 17 18 17
1 2 1 2 3 3 4 4 3 2 2 2 2 3 3 3 5 3 2 3 2 2 2 3 6 7 10 17 23 23 23 23 24 23 20 19 18 17 17 18 19 19 20 21 20 20 20 19 19 18 18 17 16 16 15 14 14 12 12 12 11 11 10 8 7 7 7 8 8 9 9 9 9 9 9 10 11 12 11 11 11 11 11 11 11 12 12 12 12 13 14 15 16 16 18 18 17
1 2 1 4 4 3 4 5 5 4 3 2 2 3 3 2 4 3 4 6 4 3 3 2 5 8 11 13 17 22 22 21 22 21 20 19 18 18 18 19 19 20 21 21 21 20 20 20 19 19 18 17 16 16 16 15 14 13 12 12 12 11 10 9 8 9 9 9 9 9 8 9 9 9 9 10 11 11 11 10 9 9 10 10 11 13 13 12 13 13 14 15 15 17 18 18 18
1 3 3 4 3 2 4 6 6 4 3 3 3 3 3 2 3 3 7 8 4 5 6 5 9 12 13 12 13 18 19 19 19 19 19 18 18 17 18 18 19 20 21 21 21 21 21 20 20 20 18 18 17 16 16 14 14 13 12 12 12 11 11 10 10 10 10 9 8 8 8 8 9 9 10 10 9 10 9 8 8 9 11 11 12 14 14 13 14 15 16 16 16 18 19 20 20
1 4 5 4 3 3 5 5 5 4 4 3 4 3 3 3 3 4 7 6 4 5 6 5 9 13 15 15 14 14 16 16 17 18 18 18 18 17 18 18 18 19 20 21 21 21 21 21 20 20 19 18 17 17 15 14 14 14 13 13 12 12 12 11 11 11 9 8 7 7 8 8 9 9 9 9 8 8 8 8 9 10 12 12 12 15 15 15 16 16 18 18 18 19 19 20 21
1 4 4 4 4 5 4 4 5 5 5 4 4 3 4 4 1 3 6 4 3 4 7 7 8 12 16 16 15 13 13 14 16 18 18 19 19 19 20 20 19 20 21 21 21 21 21 21 21 21 20 19 18 17 15 14 14 15 15 14 13 13 12 12 11 10 8 7 7 7 8 8 8 8 8 8 7 8 8 9 10 11 12 13 14 16 16 16 16 17 19 19 20 19 20 20 21
2 4 5 5 5 7 6 4 5 6 5 4 5 4 4 5 2 2 5 3 2 3 7 10 10 12 15 14 12 13 13 14 16 18 19 19 19 20 21 20 20 20 20 21 21 21 21 21 22 22 21 20 18 17 16 16 16 16 16 15 14 13 12 12 10 9 8 7 7 7 8 8 8 8 7 7 7 8 9 10 11 12 14 14 15 16 16 16 16 17 18 19 20 21 21 22 23
4 6 6 3 4 6 7 4 5 6 4 4 6 4 4 5 4 2 5 4 3 5 8 10 11 12 12 12 12 12 13 13 16 18 17 17 18 18 19 19 19 20 21 21 21 21 22 22 22 22 22 21 19 18 18 17 17 17 17 16 14 13 13 11 10 9 8 7 7 7 8 8 8 8 7 7 8 9 10 11 13 14 14 15 15 15 15 16 17 18 19 20 21 22 23 23 24
6 7 5 4 6 5 5 5 5 6 3 4 5 3 3 4 3 1 5 6 6 6 9 10 12 12 12 11 11 11 12 13 15 17 17 17 18 17 18 18 19 20 22 22 22 22 22 22 23 23 22 21 21 20 19 18 18 18 18 17 15 14 13 11 10 9 8 8 8 8 8 8 8 8 8 8 9 10 11 12 13 14 15 14 15 15 15 16 18 19 20 21 22 23 24 24 25
5 5 6 7 8 7 5 5 4 5 3 6 5 3 3 2 2 2 2 7 8 8 8 10 12 12 12 11 10 10 12 14 16 17 16 16 17 17 18 18 19 20 21 22 23 23 22 23 23 23 23 22 21 20 20 19 19 19 18 17 15 14 13 12 11 10 9 9 8 8 8 8 8 8 8 8 9 11 12 13 14 14 14 13 14 15 16 17 19 21 21 21 22 23 24 24 24
4 4 7 8 7 7 5 1 3 5 2 5 5 4 3 3 1 3 3 7 9 10 9 9 11 11 11 11 9 9 10 15 18 16 15 16 17 18 19 20 21 20 21 23 24 23 23 23 24 24 23 23 22 21 20 20 19 18 17 17 16 14 13 12 11 10 10 9 8 7 7 7 8 8 8 8 10 11 13 14 14 14 13 12 13 15 17 18 19 20 21 21 22 23 24 24 23
5 3 6 9 8 7 5 3 3 4 2 6 6 3 1 3 3 3 3 8 9 10 9 9 10 9 9 10 8 8 10 15 17 16 17 18 19 20 20 21 22 22 22 23 23 23 23 24 24 23 23 23 22 20 19 19 18 17 17 16 15 14 13 13 12 11 10 9 8 7 7 8 8 9 9 9 10 12 13 14 14 13 13 13 14 15 17 18 19 19 19 20 21 22 23 23 22
4 1 1 6 8 6 5 4 3 4 2 7 5 1 3 5 6 1 4 9 10 10 9 8 8 8 8 8 8 7 10 13 15 16 18 18 19 21 21 21 22 22 22 22 23 24 24 23 23 23 24 24 21 20 19 18 17 16 15 14 14 14 14 13 12 11 10 9 8 8 8 9 9 10 10 10 10 12 13 13 13 13 13 14 15 16 17 17 18 19 19 20 21 22 23 22 22
4 3 1 3 4 4 7 2 5 4 2 7 3 1 4 5 4 3 5 8 11 11 10 8 7 8 8 8 8 7 9 13 15 17 19 19 20 21 21 21 22 23 22 23 25 25 25 24 23 24 24 23 22 21 20 18 17 15 13 13 12 13 13 13 12 11 10 9 9 9 9 10 11 11 11 11 11 12 13 14 14 14 14 15 16 16 17 18 18 18 18 19 21 22 22 22 22
3 2 3 3 2 4 8 1 5 3 1 5 2 2 5 4 1 4 6 7 9 11 10 9 7 8 8 7 8 7 6 11 16 18 19 20 21 21 21 22 23 24 24 25 25 25 25 25 24 25 25 24 22 21 20 18 16 15 13 12 11 12 12 13 12 11 10 10 10 10 11 11 11 11 11 12 13 13 14 15 15 15 15 16 17 16 17 18 18 18 18 20 21 22 22 23 22
3 2 2 3 2 5 7 3 2 2 4 3 2 1 2 2 1 5 7 6 8 9 9 9 7 6 7 6 7 7 5 7 12 16 20 21 21 22 23 23 24 26 26 25 25 25 25 25 25 25 25 24 22 21 20 19 17 15 14 13 12 12 12 12 12 11 10 10 11 11 11 12 12 12 12 13 14 15 15 16 16 16 17 17 17 17 18 18 18 19 21 21 21 22 22 23 22
4 3 1 2 2 4 5 4 3 3 5 3 4 2 2 1 3 7 7 6 8 9 9 10 8 6 5 5 6 7 6 7 9 13 19 22 23 24 24 24 26 27 26 25 26 26 26 25 25 25 24 23 22 21 20 19 18 16 15 14 13 12 13 12 11 11 11 10 12 12 12 12 13 13 13 14 15 16 16 17 17 17 17 18 17 18 18 18 18 19 23 23 22 21 22 22 21
2 3 3 4 4 3 5 5 2 5 3 3 5 5 4 3 5 7 7 6 7 7 9 8 7 7 6 5 6 8 8 7 9 13 18 21 24 25 25 25 26 26 25 25 25 25 25 25 25 25 24 22 21 21 21 20 19 18 16 15 15 14 14 13 12 12 11 11 12 12 12 13 13 14 14 14 16 17 17 17 18 18 18 18 18 19 19 18 19 20 23 24 24 23 21 20 18
2 2 2 5 6 6 8 7 4 7 4 4 7 5 4 5 6 8 8 7 6 6 7 7 6 6 6 6 7 8 9 8 10 14 15 18 23 26 26 26 26 26 26 25 25 24 25 24 24 25 24 22 22 22 22 22 20 19 17 17 17 16 15 14 13 12 12 12 13 12 13 13 14 14 15 15 16 17 17 17 18 18 17 18 19 19 19 19 20 22 23 24 25 23 21 17 15
4 4 4 5 5 8 10 6 4 6 4 4 7 5 2 5 7 8 9 8 7 7 8 8 8 7 6 8 9 9 10 9 10 13 12 13 19 25 27 26 26 26 25 25 25 25 26 26 25 26 25 24 23 23 23 23 22 19 18 18 17 16 15 14 13 12 12 12 12 12 13 13 14 15 16 16 16 17 17 17 16 16 16 16 18 19 19 20 22 23 23 23 22 20 19 15 14
4 3 5 6 4 8 11 6 3 4 5 4 2 5 2 4 6 6 9 10 9 9 9 9 10 9 7 9 10 10 8 6 8 11 11 12 14 19 26 27 26 26 25 25 26 26 27 27 28 28 27 26 25 24 24 24 23 20 17 17 16 15 14 12 12 11 12 12 12 13 14 15 16 17 17 17 17 17 16 16 16 16 15 16 17 18 19 21 22 23 22 21 18 17 16 13 15
4 3 3 6 4 4 8 5 4 1 4 4 1 4 3 3 6 7 9 9 7 8 9 9 10 10 9 9 10 9 7 7 8 10 11 13 13 15 21 25 26 27 26 27 27 27 27 28 29 28 27 27 27 26 25 24 22 20 17 14 14 13 12 10 10 10 11 13 14 15 16 17 18 18 18 18 18 18 17 16 16 15 15 16 17 19 20 22 23 23 20 18 16 15 15 13 16
4 3 2 6 5 1 4 5 5 3 1 1 1 2 2 3 5 6 8 6 3 5 7 7 8 10 10 10 9 9 10 10 10 10 11 13 14 15 18 22 25 26 25 26 28 27 28 28 29 29 29 28 28 27 25 24 22 19 17 15 13 13 12 10 11 12 12 14 14 15 16 17 18 17 16 16 17 16 16 16 15 15 15 16 18 20 21 22 21 20 17 15 14 15 15 14 15
4 5 5 8 9 5 6 5 5 4 2 1 3 3 3 2 4 5 6 6 3 5 6 6 7 8 8 8 8 9 11 10 11 12 12 12 14 16 18 21 24 25 25 26 28 29 29 30 30 30 30 29 28 27 25 24 23 21 19 17 15 13 13 13 13 13 12 13 13 14 14 15 16 15 14 14 15 15 14 14 15 15 15 17 19 20 20 19 17 16 14 13 13 13 14 14 14
4 6 11 12 12 9 7 5 3 4 4 3 1 3 5 2 5 5 4 6 7 6 7 8 8 7 7 7 8 9 9 9 11 13 13 13 14 16 18 21 23 25 27 28 29 30 31 31 31 31 30 30 29 27 26 25 24 22 21 20 17 15 15 15 15 13 11 12 13 14 14 14 14 13 13 12 13 13 13 13 14 15 16 18 19 19 18 16 15 13 12 12 13 13 14 14 14
3 5 9 11 10 9 7 4 2 1 3 4 1 2 4 4 2 5 4 7 8 7 7 8 8 8 8 8 8 8 8 8 9 11 13 14 15 16 17 20 23 24 27 29 29 30 31 31 31 32 31 31 30 28 27 26 25 24 23 21 19 18 17 16 15 12 11 12 14 15 15 14 13 13 13 12 12 12 13 13 14 16 18 19 19 18 16 14 13 12 11 12 12 13 14 13 12
4 5 4 5 7 7 6 5 4 4 2 3 3 3 1 4 3 4 4 7 8 9 9 8 8 8 9 9 9 9 9 9 9 10 12 14 16 17 17 20 22 24 26 29 29 30 31 31 32 33 33 32 31 29 29 28 27 26 24 22 19 18 17 16 13 12 12 13 15 15 15 14 13 13 13 12 12 12 13 14 15 17 18 18 17 16 14 12 11 11 11 12 12 13 14 12 10
8 8 2 3 5 6 5 5 4 2 1 4 5 2 1 4 4 2 3 7 8 11 12 10 10 10 10 10 10 11 10 10 9 10 11 13 16 19 20 20 21 23 26 28 29 30 31 32 32 33 33 33 32 31 30 30 29 27 25 22 21 19 17 16 15 14 15 16 15 14 14 13 12 12 12 12 12 12 13 14 16 17 17 17 16 14 12 11 10 11 11 12 13 13 12 11 10
6 5 2 1 1 0 2 4 4 2 2 4 6 2 2 4 4 1 4 6 8 11 11 10 10 10 11 11 11 11 10 9 10 10 11 14 17 18 19 20 21 23 25 27 29 30 30 31 31 32 33 33 33 32 32 31 29 28 26 24 22 20 18 17 17 17 17 16 15 13 12 10 10 11 12 12 13 13 14 15 16 17 17 16 14 12 11 10 9 10 11 11 12 12 11 10 9
4 5 3 2 4 3 3 2 3 3 2 5 5 4 4 1 4 2 4 5 6 7 6 8 9 10 11 11 10 11 10 9 9 9 11 16 19 17 16 18 20 22 24 27 28 29 30 30 31 33 33 34 33 33 33 31 30 29 28 25 23 21 19 17 17 18 17 15 13 12 10 8 9 10 12 14 15 16 15 16 16 16 16 14 13 11 9 8 8 9 10 11 11 11 10 9 9
1 2 1 2 4 4 4 4 3 2 3 5 4 3 5 0 5 4 7 8 5 6 6 8 11 11 11 11 10 11 10 10 10 9 9 12 16 17 16 16 18 21 23 27 28 29 30 31 32 33 32 33 33 33 33 32 30 30 29 27 24 22 20 18 18 17 15 12 12 11 10 9 10 11 13 14 15 16 16 15 16 15 15 13 11 9 7 6 7 8 9 10 10 10 9 9 11
3 1 3 4 3 4 3 3 2 1 5 3 1 3 2 3 7 6 8 9 7 7 7 8 11 11 11 11 11 10 10 11 11 10 9 9 11 16 19 18 18 20 23 26 28 29 29 30 32 32 32 33 33 33 33 32 31 31 29 27 26 23 21 18 18 17 14 10 10 11 10 10 11 12 13 12 11 12 13 13 14 14 13 11 9 7 5 5 6 8 9 9 9 9 9 11 12
3 3 2 3 2 3 1 3 2 2 4 3 2 1 1 3 4 4 6 7 7 7 7 8 9 11 12 12 12 11 11 11 11 10 11 10 11 15 19 19 19 21 23 26 28 29 29 30 31 32 33 34 34 33 33 32 32 31 29 27 27 25 22 19 18 18 15 12 10 11 11 11 12 12 12 10 9 9 10 10 11 11 10 9 7 5 4 5 6 7 8 8 8 9 10 11 11
3 4 4 4 4 3 2 3 2 2 3 3 2 1 1 1 2 4 5 4 4 5 5 6 6 7 8 9 10 11 11 11 11 11 11 12 15 18 19 19 20 21 23 25 27 28 29 29 31 32 32 33 33 33 33 33 33 31 29 27 27 26 23 20 18 18 17 15 13 11 11 11 11 10 9 10 10 10 10 10 10 9 8 7 5 4 3 4 5 7 7 7 9 9 10 11 11
3 2 4 1 4 5 1 2 4 2 1 3 2 2 3 3 4 5 1 1 2 2 3 5 5 6 7 8 9 11 11 11 11 12 12 13 17 21 20 19 19 20 23 25 27 29 29 29 31 32 33 34 34 34 34 34 34 32 30 28 27 26 24 20 18 17 17 16 14 11 10 9 8 7 7 8 9 9 9 9 8 8 7 6 4 3 3 3 5 6 5 7 9 9 10 11 11
1 1 2 4 3 6 3 1 0 3 2 3 2 2 5 3 4 6 4 2 3 3 3 5 5 6 7 8 9 10 11 12 12 13 12 13 16 20 22 21 20 20 23 26 28 30 31 31 31 32 32 33 34 34 34 34 34 33 30 28 27 27 24 21 18 16 16 16 14 11 9 8 6 6 7 8 8 8 8 8 8 8 7 6 4 2 2 3 4 5 6 8 10 10 10 11 11
4 1 4 3 1 4 3 0 3 4 1 3 2 2 5 2 1 6 6 4 2 2 2 3 4 6 7 8 9 11 12 12 13 13 12 12 14 19 22 23 22 22 23 26 28 30 31 32 32 32 32 32 33 34 34 34 34 33 31 28 27 27 25 21 18 16 16 16 15 11 9 8 7 7 8 9 8 8 8 8 8 8 7 5 3 1 1 3 4 5 8 10 10 10 11 12 12
5 4 2 2 2 1 1 1 0 1 1 3 4 4 3 3 3 4 4 4 2 2 2 3 5 7 8 7 8 10 10 9 10 11 10 10 13 17 21 22 22 23 24 25 28 29 30 32 33 33 34 34 35 35 35 34 34 33 32 29 27 27 26 23 20 18 17 17 16 12 9 9 8 8 8 9 8 9 9 9 9 8 7 5 2 0 1 2 4 7 10 11 11 11 12 13 13
2 2 1 2 3 3 1 1 2 1 1 2 3 5 3 5 5 4 5 7 3 4 4 5 7 8 8 7 7 8 8 9 9 10 10 10 13 18 22 22 22 23 24 25 27 29 30 31 32 32 33 34 34 35 35 34 33 33 31 29 27 26 26 24 22 20 19 18 17 14 11 10 9 8 8 8 9 9 10 11 10 9 6 4 2 1 1 2 5 9 11 12 12 12 13 14 13
2 1 1 1 0 1 1 0 1 2 2 2 1 3 5 6 4 6 7 6 4 6 6 6 7 8 7 7 7 7 8 9 9 9 10 10 13 18 21 23 23 23 23 25 27 29 30 31 31 32 32 32 33 34 34 33 33 32 31 29 27 26 25 24 23 22 20 18 17 15 13 11 9 8 7 8 9 10 11 11 10 8 6 4 2 1 2 4 8 10 11 12 12 13 13 14 13
4 4 3 3 2 2 1 2 2 1 2 3 3 2 7 5 3 4 4 4 4 5 6 6 6 7 7 6 6 7 7 8 8 9 10 9 12 16 19 22 23 21 22 24 26 27 29 30 31 31 31 32 33 33 34 33 32 31 31 30 27 25 24 23 22 21 19 17 16 15 13 11 10 9 8 9 10 11 13 12 11 9 6 4 3 2 4 7 9 11 12 12 12 13 13 13 13
Wind_Direction
133 141 144 141 139 137 134 255 286 303 324 311 273 227 256 115 116 158 134 177 167 96 52 89 114 114 96 133 163 160 140 164 181 149 190 299 147 157 158 157 156 155 157 157 156 154 158 165 163 159 161 161 157 153 152 149 143 140 138 139 138 138 136 135 138 138 137 135 135 132 127 122 104 84 66 53 44 36 37 45 45 36 28 21 15 14 11 6 1 355 355 358 3 6 360 354 342
142 142 139 135 129 130 123 309 318 360 11 312 282 218 276 32 111 168 124 107 85 91 76 84 93 92 60 62 92 73 87 75 173 121 74 126 137 153 158 157 156 156 157 156 157 155 157 164 164 161 163 165 160 155 153 149 144 142 141 139 138 138 136 135 136 135 131 126 125 123 121 112 95 78 63 48 34 20 17 27 35 27 18 9 6 5 2 359 353 348 348 351 351 353 350 342 335
143 140 139 134 103 69 94 55 359 43 14 288 279 257 302 343 65 60 74 77 85 79 68 85 84 71 47 81 85 75 158 351 112 93 103 140 142 158 159 156 157 157 157 158 158 157 157 162 162 159 161 163 160 156 154 151 147 146 144 142 144 143 142 142 140 137 129 122 117 117 118 110 95 74 56 37 20 12 5 7 24 14 1 356 357 357 354 350 343 340 341 344 344 344 341 338 336
143 141 139 134 65 14 91 87 182 128 268 253 281 276 137 313 38 75 81 67 74 66 80 115 101 32 18 131 138 98 200 14 127 121 134 160 163 159 157 154 155 156 158 160 160 158 157 163 162 157 158 163 165 160 157 156 152 151 147 145 148 148 149 149 144 140 133 126 118 118 119 110 91 63 40 23 7 2 5 356 3 353 343 343 348 347 342 339 336 336 337 340 342 341 337 337 334
142 143 144 122 47 137 97 116 181 173 237 193 263 275 145 232 156 119 83 54 78 75 79 148 109 68 23 105 114 149 177 74 139 167 145 164 167 157 156 154 154 155 158 160 159 159 158 164 165 159 159 164 169 166 164 161 157 155 151 150 153 152 154 151 145 140 136 131 122 119 116 100 70 38 12 6 358 351 347 327 332 336 337 338 339 337 334 334 333 334 336 339 340 338 335 335 331
141 150 177 292 339 132 68 67 268 250 242 174 180 265 188 98 164 145 132 73 63 24 25 143 115 113 102 8 336 210 150 93 149 172 154 159 163 158 155 154 154 154 157 160 160 159 158 165 169 165 161 163 169 171 172 167 162 160 156 157 158 157 153 148 143 136 134 134 128 122 113 91 45 7 346 344 343 334 318 322 330 332 335 333 332 329 330 331 330 331 334 336 335 334 333 331 328
148 156 208 297 320 104 67 230 250 246 265 187 170 273 11 81 161 141 147 114 54 327 343 53 104 114 104 20 263 333 50 113 157 166 160 157 159 158 155 154 153 154 157 159 161 159 159 165 170 170 167 164 167 170 174 172 169 169 165 165 165 164 157 153 149 142 140 139 135 127 106 61 360 331 325 323 326 319 313 326 325 323 326 326 325 325 326 325 324 328 332 332 331 331 330 329 328
173 178 205 326 4 16 248 264 251 211 262 253 195 296 76 153 161 132 149 132 93 212 55 91 80 87 93 41 126 357 50 141 171 162 157 154 156 156 155 155 152 154 158 160 161 159 159 166 169 171 171 169 168 168 173 174 176 177 174 175 175 176 173 174 177 172 171 171 169 151 182 309 301 304 310 311 315 310 310 314 312 317 321 320 319 319 319 318 320 326 330 329 328 328 326 327 330
183 200 278 94 25 3 291 278 273 233 256 272 281 340 111 166 141 124 125 106 133 166 86 97 290 254 140 93 93 40 84 140 155 152 152 152 155 155 155 155 154 155 158 161 162 159 160 167 168 171 172 173 173 171 175 177 180 184 183 185 184 186 188 192 202 205 203 200 198 213 255 268 279 290 298 302 307 300 299 302 307 313 312 312 312 314 316 318 321 325 329 326 324 323 322 327 331
99 322 278 103 58 2 329 296 279 269 261 261 39 360 123 148 104 114 110 116 141 119 70 54 250 142 128 106 94 138 127 139 142 141 149 152 153 154 155 156 156 157 159 162 162 160 161 166 170 172 172 173 177 176 179 182 184 187 189 191 193 197 201 206 212 211 206 200 206 243 265 272 280 285 293 299 301 295 296 298 302 303 304 306 308 314 317 319 320 323 326 322 320 321 323 329 335
4 327 25 67 28 14 328 300 292 296 290 320 75 42 69 107 94 96 100 122 137 119 136 175 163 126 109 117 130 197 140 141 140 140 149 152 153 154 154 156 158 159 161 162 162 162 161 164 170 174 174 173 178 180 182 185 186 190 193 196 199 205 205 208 204 202 200 200 224 251 263 272 280 284 288 293 292 293 296 297 297 297 301 306 310 316 319 320 319 321 324 321 321 323 328 333 338
360 330 47 73 47 28 294 306 298 308 323 9 82 29 53 112 93 101 122 130 140 149 163 170 161 133 112 139 158 158 137 140 140 142 149 151 153 154 155 156 159 162 162 163 164 163 161 163 168 173 175 173 174 179 181 181 183 188 191 192 195 197 197 196 193 197 204 215 239 249 261 271 277 277 277 282 289 292 290 290 292 296 303 307 313 318 320 323 322 323 324 322 323 325 331 336 342
63 148 60 65 184 180 286 289 288 320 345 27 102 93 80 97 53 30 128 121 135 157 144 147 164 123 112 120 116 143 134 139 141 143 149 150 152 153 155 157 159 162 163 165 165 165 164 167 170 168 170 173 174 176 178 176 179 182 182 185 185 188 190 193 198 204 215 227 238 247 257 264 267 269 274 282 286 284 284 289 296 302 307 310 316 320 322 324 324 325 325 324 325 328 334 339 344
115 155 87 352 300 297 271 282 321 1 333 322 77 136 108 91 102 6 89 124 133 161 89 61 133 104 106 129 131 151 138 141 143 143 146 147 150 151 153 157 159 162 163 166 168 168 168 170 173 170 169 174 175 175 178 177 179 181 181 185 186 191 196 202 210 211 221 227 236 246 251 258 262 272 282 284 284 285 290 298 304 307 310 315 318 321 323 325 325 326 327 327 328 332 337 340 342
127 137 99 42 344 346 289 273 341 38 290 303 34 124 105 85 121 50 12 136 132 324 334 80 6 108 164 175 155 152 145 145 144 142 143 144 146 149 152 155 158 162 164 168 170 171 171 172 175 174 174 175 178 179 183 185 187 190 190 192 194 199 203 209 214 216 223 226 235 243 249 260 267 274 277 281 287 293 299 304 308 312 317 320 321 323 327 327 327 327 327 328 330 332 334 338 338
124 120 75 39 7 348 310 223 41 46 284 41 33 360 98 93 66 55 307 102 109 324 334 88 341 159 167 167 134 138 145 146 143 141 140 139 141 144 148 152 156 160 165 169 171 173 174 174 176 178 178 180 184 185 189 191 191 196 198 200 203 206 209 212 215 219 223 229 238 243 255 264 266 268 273 286 294 301 306 311 316 320 322 323 323 327 331 330 328 327 325 326 328 328 329 333 333
72 91 60 18 39 319 246 208 184 16 290 110 89 294 106 110 75 27 312 34 96 28 24 44 343 54 121 125 131 138 145 146 142 140 137 136 137 139 145 152 155 159 165 170 172 174 176 177 177 179 181 183 187 189 191 194 193 198 205 207 208 211 211 212 216 221 227 233 240 248 257 260 269 278 287 297 302 308 313 317 320 321 323 324 326 329 331 331 328 324 322 323 326 326 326 329 330
65 103 78 334 208 215 208 197 198 177 261 161 132 161 125 126 126 146 4 44 58 49 20 9 39 57 94 123 133 140 146 147 145 142 139 139 141 142 148 156 159 161 166 172 174 177 179 180 180 180 183 186 189 193 196 198 196 201 210 210 207 209 212 215 221 226 233 236 240 249 257 265 279 292 299 303 306 310 313 317 319 319 321 323 326 327 327 327 324 319 318 320 324 325 324 327 330
117 128 81 247 213 216 206 187 192 186 205 160 127 140 127 133 145 174 176 136 140 78 12 16 63 81 107 125 134 144 150 151 150 147 147 148 151 151 154 161 163 164 169 174 178 181 183 183 183 184 187 190 194 198 202 205 204 207 214 213 208 209 214 219 224 230 239 244 249 254 265 281 291 297 299 301 306 310 313 316 318 319 321 321 323 322 322 323 319 315 314 318 321 323 323 325 329
180 146 133 246 222 248 233 198 208 203 174 125 103 129 128 145 152 171 155 151 183 174 173 144 119 130 133 134 140 149 154 155 156 153 154 155 156 158 160 166 168 169 173 177 180 184 187 187 188 190 192 195 200 206 210 212 211 211 215 214 211 210 214 219 225 232 241 249 256 264 275 287 290 294 296 300 305 308 312 314 316 317 316 316 319 318 319 320 317 313 313 317 319 322 323 324 326
187 164 196 236 198 271 247 201 211 199 165 146 125 117 130 162 150 159 146 144 204 210 198 180 154 153 147 145 149 153 156 158 159 158 158 158 159 162 166 170 172 172 174 178 182 187 190 192 193 195 198 202 207 213 216 217 214 211 216 218 214 212 216 224 232 238 245 252 260 269 277 282 286 290 295 300 304 307 309 312 312 313 312 313 317 317 317 318 317 316 316 319 322 324 325 325 327
187 218 219 221 175 262 250 191 189 166 146 143 133 134 150 149 142 176 166 156 215 212 192 180 158 157 154 152 154 157 158 160 163 163 163 163 163 164 168 172 172 173 177 181 185 189 193 195 198 199 202 207 213 217 219 220 216 214 219 221 219 221 226 233 241 246 250 257 261 267 274 280 286 290 293 295 300 306 306 308 311 312 312 313 317 316 314 316 317 318 318 320 323 325 326 327 326
254 259 240 237 206 234 250 172 169 154 141 155 161 167 132 128 144 191 188 189 229 200 157 153 153 156 155 153 156 159 161 164 166 168 168 166 166 167 170 173 173 176 181 185 189 192 197 199 202 204 207 211 214 218 222 222 221 220 224 228 228 230 237 243 248 250 251 256 259 265 274 281 285 286 287 291 301 307 304 309 313 314 313 312 316 315 312 315 317 319 320 322 325 327 328 327 326
244 275 271 266 214 219 241 185 164 157 158 172 152 136 132 156 167 150 204 218 206 161 132 136 140 148 153 154 161 162 162 166 168 170 172 170 170 172 173 175 177 179 182 188 192 195 200 203 205 208 211 214 215 218 223 224 224 225 229 235 235 238 245 249 250 249 249 253 258 266 273 277 282 284 286 294 303 304 304 312 314 313 312 311 313 312 311 315 320 323 324 326 328 328 328 327 327
221 249 268 271 215 229 249 228 183 166 161 152 132 130 155 168 147 146 206 200 156 141 123 128 136 145 157 163 166 164 164 167 168 170 172 171 170 171 175 178 179 182 186 190 194 197 203 206 208 211 213 215 216 220 224 226 227 229 234 238 240 244 246 246 245 246 248 250 256 262 267 273 279 284 288 294 301 302 308 314 314 313 312 310 311 311 312 316 321 325 325 325 326 326 327 328 328
218 233 268 275 272 274 249 237 202 173 158 147 143 125 134 155 139 199 204 168 156 141 126 132 141 152 162 169 171 167 168 169 169 170 168 168 169 171 177 181 183 188 191 193 196 199 204 207 210 212 214 215 218 223 226 228 229 232 236 240 244 246 244 242 241 243 246 247 252 256 262 270 276 282 285 291 299 305 315 318 316 315 311 309 310 311 316 318 321 324 324 324 323 324 325 327 327
229 238 274 269 282 293 246 231 177 147 150 161 150 102 117 142 129 260 215 151 149 136 133 143 148 160 167 170 175 171 172 172 170 169 164 164 170 175 180 183 188 192 194 195 199 201 204 208 211 213 215 217 220 224 228 230 231 234 238 242 244 243 240 238 239 241 242 243 248 252 258 266 272 278 282 291 300 308 316 318 318 316 310 311 314 315 319 319 320 321 320 320 321 322 323 323 323
271 282 297 285 294 298 272 254 140 127 138 168 138 89 107 119 149 240 190 147 148 139 143 156 154 164 170 170 173 173 175 173 171 170 167 170 175 180 184 188 190 193 196 199 201 201 204 208 210 213 215 218 221 225 228 230 232 235 237 240 240 239 238 236 237 238 238 242 246 250 254 259 266 272 277 287 297 306 312 317 320 316 313 319 322 321 321 321 321 319 317 318 318 319 319 319 322
279 309 311 304 334 328 321 20 141 127 122 175 140 69 49 175 209 254 162 148 143 138 148 162 163 165 171 174 173 171 174 172 174 177 177 177 181 184 189 193 192 194 199 201 202 202 205 208 209 212 215 218 222 224 227 228 231 233 235 237 237 236 236 236 237 236 238 242 242 247 249 251 258 263 271 282 293 303 309 316 319 316 316 321 325 325 322 320 319 317 317 319 318 319 318 320 321
287 323 347 313 347 334 325 28 119 97 127 185 149 28 283 229 221 211 144 155 139 141 156 163 168 168 172 179 176 172 171 175 180 182 182 181 184 190 194 197 196 197 199 200 202 204 205 207 208 210 214 218 220 222 223 224 227 231 233 234 235 234 234 236 237 237 240 240 239 242 244 246 251 257 267 278 289 298 303 310 312 311 315 318 320 323 321 319 319 319 321 322 322 322 321 322 322
299 301 59 355 359 294 305 11 132 90 182 197 122 106 265 270 235 165 149 162 147 148 160 163 167 169 174 178 179 180 174 180 185 184 184 184 186 193 196 197 197 199 199 199 202 204 205 206 206 208 213 216 217 218 220 223 228 231 233 233 233 232 232 236 237 238 240 239 239 238 239 243 248 256 266 276 284 290 295 300 301 304 310 312 312 317 320 322 323 323 326 328 328 329 328 328 326
343 321 329 349 26 283 306 311 157 97 166 210 101 152 256 306 261 151 150 165 153 149 158 162 163 167 174 176 179 184 179 184 187 186 188 187 187 193 197 196 197 200 200 200 202 203 205 207 207 208 212 213 213 215 218 224 229 232 235 236 236 234 231 233 235 238 241 240 240 237 238 244 250 257 265 275 281 283 288 292 295 300 304 305 306 312 319 323 328 328 331 333 330 331 332 332 331
357 35 299 309 348 314 319 328 226 108 111 219 264 199 265 339 91 146 153 165 151 142 147 155 161 168 173 176 180 178 174 185 189 189 189 189 190 194 197 197 199 201 201 199 199 201 203 205 205 205 209 210 209 213 219 225 230 233 237 238 240 239 235 234 235 239 242 240 241 239 240 246 253 260 267 275 279 281 284 288 292 296 299 301 303 310 316 323 329 330 333 336 332 330 330 331 331
334 15 356 274 286 307 306 311 286 150 131 201 224 230 261 46 135 161 159 158 151 144 143 152 165 172 175 179 183 183 180 186 192 192 190 189 191 195 198 199 202 203 201 200 199 200 201 202 203 205 208 208 208 213 219 225 230 235 239 240 243 243 240 239 239 242 243 242 242 242 244 250 259 266 272 277 280 281 282 284 288 292 296 297 300 307 313 320 326 329 332 335 336 331 330 332 332
40 26 360 312 292 272 266 286 247 174 192 201 188 235 239 143 140 167 165 152 154 155 143 145 159 166 178 192 194 194 190 190 193 194 193 191 191 196 199 200 203 203 201 201 200 200 200 201 203 205 208 209 210 216 221 227 232 235 239 240 242 245 245 243 243 244 244 244 244 246 250 258 265 271 275 279 282 283 282 284 286 288 291 292 297 304 310 319 324 326 329 334 337 333 331 336 336
61 1 320 302 303 287 267 268 228 189 214 215 190 222 220 160 159 170 171 159 153 159 143 137 155 162 178 199 204 201 197 199 193 194 195 190 191 196 199 200 203 204 203 201 200 199 199 201 203 205 208 211 213 217 222 226 230 234 237 239 241 242 244 243 244 245 245 244 245 252 258 265 271 275 280 283 286 286 285 286 286 285 286 289 295 301 309 318 321 325 330 334 336 332 334 343 343
332 332 313 291 286 288 285 280 243 191 191 247 208 205 191 162 179 175 170 168 160 165 160 154 163 167 183 197 204 203 202 200 190 194 199 192 191 195 199 201 201 202 203 201 199 200 200 201 203 206 209 212 214 217 220 224 226 228 231 235 239 240 242 243 242 241 242 243 248 258 264 270 276 281 285 286 288 287 285 286 284 283 284 289 294 300 309 314 319 327 334 335 335 334 340 349 343
305 314 320 307 267 270 285 292 280 193 182 288 226 182 201 176 187 179 169 178 181 179 176 171 171 173 184 195 202 205 200 190 186 198 207 204 198 194 196 200 200 199 200 199 200 201 202 201 204 208 209 211 216 220 222 225 227 227 228 232 235 236 237 239 240 240 244 251 258 264 270 276 281 284 286 285 284 282 282 284 284 285 288 291 296 301 308 313 322 333 336 334 334 338 345 349 343
285 289 314 301 274 278 292 304 347 87 182 292 313 169 221 197 188 192 184 186 189 188 187 181 176 176 183 191 199 202 193 184 192 203 210 210 207 198 193 196 199 198 198 199 201 202 202 202 205 209 210 212 217 221 223 226 228 227 227 233 234 232 234 238 243 249 256 264 268 272 277 280 284 286 284 282 280 277 279 283 286 290 293 298 302 305 310 319 329 336 335 333 335 341 346 348 344
256 252 274 278 274 287 287 305 5 34 161 238 147 155 238 184 178 202 202 193 163 182 193 185 181 184 188 190 192 195 193 190 192 201 211 210 205 200 194 193 196 197 196 197 200 201 202 203 206 209 212 214 217 221 224 226 227 226 226 232 234 232 235 241 249 256 262 269 273 277 279 284 288 286 281 277 275 275 277 283 288 292 297 303 306 309 316 326 333 333 332 335 340 346 350 348 343
247 225 219 253 267 234 220 273 334 5 5 144 109 24 315 187 181 214 205 199 186 172 184 186 189 195 192 189 192 197 197 190 188 197 207 209 203 198 196 194 194 194 195 197 199 201 203 205 207 211 213 215 218 221 224 225 224 224 223 226 229 233 237 243 250 255 262 269 274 278 284 293 294 284 275 272 271 274 278 284 289 294 301 305 307 314 322 330 330 329 331 338 346 354 353 345 341
299 237 214 229 255 254 237 261 325 3 338 280 91 24 310 259 196 214 193 200 208 181 186 195 192 195 194 194 197 200 201 191 188 197 203 207 206 199 196 197 195 194 197 199 200 202 205 207 208 211 214 215 218 221 223 223 221 219 218 218 220 225 232 239 245 252 260 269 276 282 290 298 296 280 270 268 268 273 278 284 290 296 301 305 311 320 326 327 326 327 333 341 351 356 351 345 344
305 245 207 216 240 262 262 220 166 280 279 283 46 121 274 307 233 223 199 205 219 201 197 202 193 192 195 199 199 198 201 192 187 197 202 205 207 202 196 197 197 196 198 200 201 203 205 207 208 210 214 216 218 220 221 221 219 217 216 216 218 221 230 237 240 249 262 272 279 284 286 290 292 283 274 271 270 273 278 283 289 294 298 305 316 323 324 323 323 328 337 347 354 355 352 355 359
247 239 162 191 228 245 242 186 177 229 247 331 2 114 202 302 284 257 209 208 229 225 216 209 199 198 196 199 201 197 199 194 186 194 201 203 205 206 201 199 199 199 200 200 201 202 205 207 208 211 214 216 217 218 220 220 218 216 215 217 220 224 233 238 239 249 262 273 278 277 277 284 291 287 278 276 276 276 279 283 287 291 297 309 319 322 320 319 320 328 340 349 357 359 360 7 16
247 255 187 189 232 227 202 170 185 233 30 323 303 123 123 278 278 293 197 210 236 235 226 215 205 201 198 199 200 199 199 197 189 189 200 203 202 204 205 203 202 202 201 200 200 202 204 206 208 210 212 215 216 218 219 220 218 216 215 218 222 226 234 239 244 253 261 272 275 270 273 283 287 283 276 275 280 283 285 286 288 292 301 312 317 317 316 314 319 329 343 354 1 5 9 15 27
252 286 291 88 41 211 136 137 148 67 27 281 268 182 134 281 279 141 170 217 236 233 228 218 208 201 198 199 198 198 198 197 192 189 199 204 201 200 201 202 202 201 201 201 201 201 202 204 206 208 211 213 214 216 218 218 217 216 216 218 221 226 232 238 247 253 260 269 271 265 270 280 280 276 273 275 279 283 285 286 289 294 303 310 311 311 309 310 323 337 349 0 5 8 15 24 37
269 346 320 2 20 34 45 70 106 69 305 272 259 189 135 310 280 204 191 222 215 208 219 214 206 201 199 199 197 196 196 195 194 190 196 203 203 200 197 197 197 197 199 199 199 199 199 201 203 207 210 212 212 215 216 217 215 214 216 219 221 225 230 237 245 251 258 265 264 261 263 270 276 279 281 280 278 279 281 283 288 294 302 305 304 303 302 312 332 345 355 2 6 12 21 34 46
203 10 10 9 343 5 23 356 41 91 257 274 257 169 115 138 260 231 228 240 214 186 199 203 202 201 198 197 195 195 194 193 193 191 191 196 200 202 201 199 195 193 193 194 196 197 197 199 202 205 207 209 210 212 214 215 214 214 216 219 222 225 230 236 242 250 259 262 257 256 258 266 279 293 298 291 282 279 280 282 287 291 296 297 294 292 298 318 337 347 356 1 8 22 37 48 55
116 129 48 51 344 356 8 321 356 195 250 273 191 134 112 231 248 241 236 244 233 209 201 198 199 197 193 193 192 191 191 192 194 191 188 188 196 201 201 199 193 190 190 191 193 194 194 197 200 202 204 207 209 211 212 213 213 214 217 220 223 226 228 234 240 248 259 263 255 252 261 274 287 301 309 306 296 291 290 288 289 289 288 285 280 279 295 323 340 351 358 6 23 43 56 60 63
155 184 109 104 89 43 329 284 320 267 263 273 221 202 295 285 270 234 226 241 235 221 210 197 195 194 192 191 188 187 189 192 195 192 189 190 195 200 201 198 193 191 191 190 190 191 192 195 198 201 204 206 207 209 211 212 213 215 218 222 224 225 226 230 238 246 255 261 258 258 271 286 293 299 309 315 314 309 303 296 289 284 278 269 262 268 299 328 345 358 4 20 48 64 69 69 71
197 173 134 139 147 139 228 243 223 251 278 293 288 236 201 241 254 224 225 251 254 237 213 186 187 193 183 179 180 184 190 192 195 196 192 192 195 199 201 199 195 192 191 190 190 190 191 194 198 201 203 204 205 208 210 211 214 216 218 223 225 224 224 229 237 244 251 258 261 267 281 291 290 291 299 306 308 303 297 291 283 272 259 246 243 265 306 336 354 7 19 49 73 78 78 75 74
265 154 109 161 182 150 158 191 181 201 321 292 278 229 214 219 262 275 279 320 327 318 177 159 170 175 158 168 182 186 192 192 193 197 195 194 195 198 201 200 197 193 190 190 190 190 191 194 198 202 204 204 205 207 209 213 215 216 218 222 225 223 223 229 237 243 248 255 261 270 287 295 290 286 293 300 300 292 286 278 265 246 233 228 229 265 313 348 11 22 46 79 89 88 84 80 74
269 127 170 232 189 126 112 242 284 66 66 276 281 282 295 328 310 310 3 35 360 27 130 164 171 165 161 179 188 188 192 192 194 197 196 193 193 197 200 200 197 192 190 190 191 192 193 195 198 201 203 204 205 207 210 213 215 216 218 222 224 222 222 228 236 241 246 252 258 270 287 298 297 296 301 305 300 285 271 257 241 223 213 214 220 263 328 11 27 48 85 97 97 95 90 85 76
120 183 223 234 42 72 100 85 352 45 88 284 319 289 295 358 323 317 350 343 321 59 139 163 160 172 182 191 193 193 194 193 195 197 195 193 193 195 199 200 197 195 193 192 192 194 195 197 200 201 202 203 206 208 211 213 215 216 218 221 221 219 221 227 235 239 243 250 256 265 282 295 301 304 305 303 291 269 250 234 222 209 203 204 212 269 357 31 48 88 108 105 101 101 97 90 83
131 174 189 111 78 354 27 123 359 41 317 293 311 305 276 196 222 285 310 282 250 139 160 171 177 194 199 200 199 197 194 194 196 195 194 194 193 194 198 200 198 196 195 194 192 193 194 197 201 202 204 207 209 210 212 213 215 216 218 220 220 218 221 227 234 237 240 247 253 258 272 289 299 305 304 295 276 254 235 219 209 203 199 198 210 275 26 54 89 114 117 111 106 106 101 95 86
94 146 360 51 147 169 177 149 159 175 235 273 313 330 292 227 219 200 221 245 212 159 193 207 206 207 204 203 197 191 192 195 195 194 193 192 192 194 196 198 198 194 195 194 191 191 193 196 200 203 205 208 209 211 212 213 215 215 217 220 220 220 222 227 232 236 240 247 251 252 263 279 289 296 295 280 261 242 223 208 202 201 200 204 221 211 83 104 125 128 123 116 112 110 104 96 87
117 200 284 301 217 152 172 142 126 142 157 182 282 312 276 251 213 185 210 235 207 182 200 217 219 214 209 203 193 189 193 195 196 194 192 192 192 192 193 197 197 194 192 192 190 190 192 196 199 203 205 207 208 210 212 214 214 214 216 219 221 222 224 227 231 235 240 246 246 246 256 271 277 280 277 262 245 225 211 204 202 204 209 217 225 202 147 142 141 137 129 121 117 114 106 98 90
158 186 196 180 165 133 130 302 308 111 139 171 160 256 273 263 211 210 221 213 210 204 199 212 223 216 210 201 191 192 193 193 196 195 193 190 191 190 191 193 193 190 188 188 190 190 190 195 200 202 204 207 210 212 213 214 214 214 215 218 221 223 225 228 231 235 240 241 238 240 252 264 265 264 261 251 234 216 206 204 205 209 214 217 217 189 159 156 152 145 136 126 122 118 110 102 94